Location: Alafon
(8.4500°N, 4.2333°E)
Time: 16:02:25
(UTC+00:00)

Transit 2A - Pass Details

Date: 10 August 2021
Orbit: 595 x 964 km, 66.7° (Epoch: 18 September)

Event Time Altitude Azimuth Distance (km) Brightness Sun altitude
Rises 12:24:22 0° 15° (NNE) 3,501 9.5 78.8°
Reaches altitude 10° 12:28:38 10° 44° (NE) 2,626 8.9 78.0°
Maximum altitude 12:31:02 12° 67° (ENE) 2,485 8.7 77.5°
Drops below altitude 10° 12:33:28 10° 90° (E) 2,675 8.8 77.0°
Sets 12:37:52 0° 118° (ESE) 3,640 9.3 76.1°
